FENGYUN 1C DEB

Satellite information

Favourite Embed

Satellite Type and Status

DEBRISIN ORBIT

Key statistics

Satellite FENGYUN 1C DEB at a glance.

Uptime

9715

Days in orbit

Revolutions

≈ 14.4

Per day

Orbit

SSO

Sun Synchronous Orbit

Inclination

99.0

Latest

Satellite identification and parameters

Extended collection of information and parameters for FENGYUN 1C DEB.

Object identification

Identified? True

Debris? True

Object name: FENGYUN 1C DEB

International designator: 1999-025ED

Object number (NORAD): 29835

Object ID (CCSDS): 29835

Country: PEOPLES REPUBLIC OF CHINA (PRC)

Current information (Y/N): Y

RCS size: SMALL

Orbital parameters

Period: 99.766 minutes

Inclination: 99.0256 deg

SMA: 7125.509 km

Apoapsis: 867.047 km

Periapsis: 627.7 km

RAAN: 114.647 deg

Eccentricy: 0.01679507

Argument of periapsis: 38.5772 deg

Mean anomaly: 21.2495 deg

Mean motion: 14.43374249 rev/day

Mean motion (dot): 0.00000333 rev/day2

B* drag term: 0.000097433719 1/REarth

Two-line elements (TLE)

Creation date: Dec. 12, 2025, 10:14 a.m.

Reference frame: TEME

Reference center: EARTH

Epoch: Dec. 12, 2025, 6:49 a.m. UTC

TLE line 0: 0 FENGYUN 1C DEB

TLE line 1: 1 29835U 99025ED 25346.28446944 .00000333 00000-0 97434-4 0 9993

TLE line 2: 2 29835 99.0256 114.6470 0167951 38.5772 21.2495 14.43374249994886

Live tracking on map

Real-time ground track for satellite FENGYUN 1C DEB.

In-orbit conjunctions

A list of the most updated potential collisions computed for object FENGYUN 1C DEB.

Target Orbit TCA Probability of collision Miss distance Type
CZ-6A DEB LEO 2025-11-23 19:39:43 0.0003489303 71.0 (m) DEBRIS
COSMOS 970 DEB LEO 2025-09-26 01:22:50 0.0001731461 111.0 (m) DEBRIS
CZ-6A DEB SSO 2025-06-21 01:44:19 0.0001622167 262.0 (m) DEBRIS
FENGYUN 1C DEB SSO 2025-04-15 01:37:46 0.0004926249 45.0 (m) DEBRIS

Associated space launch

Chinese polar orbiting meteorological satellite

FENGYUN 1C DEB was lifted into orbit during the mission ‘Long March 4B | Feng Yun 1C’, on board a Long March 4B space rocket.

The launch took place on May 10, 1999, 1:33 a.m. from Launch Complex 7.

For more information about the launch, click the button.

Launch to space Long March 4B | Feng Yun 1C
Long March 4B | Feng Yun 1C

Agency: N/A

Status: Launch Successful

Launch date: May 10, 1999, 1:33 a.m. UTC

Rocket: Long March 4B

Launch pad: Launch Complex 7

Location: Taiyuan Satellite Launch Center, People's Republic of China

...

Latest news about this satellite

There are no fresh news available about this satellite. Check back as we update our databases every day.


Newsletter sign-up

Weekly statistics, charts and insights to help you stay on top of the space industry.